This is the latest recevied weather packets stored in our database for station/object JS2QVS-13. If no packets are shown the sender has not sent any weather packets the latest 10 day(s).
| Time | Temp. | Humidity | Pressure | Rain* | Wind** | Luminosity | Snow |
|---|---|---|---|---|---|---|---|
| 1777807662 | 18.89° C | 90% | 1003.9 hPa | 4.32 mm | - | - | - |
| 1777807062 | 18.89° C | 90% | 1004 hPa | 4.32 mm | - | - | - |
| 1777806462 | 18.89° C | 90% | 1004.2 hPa | 4.32 mm | - | - | - |
| 1777805861 | 18.89° C | 90% | 1004.1 hPa | 3.81 mm | - | - | - |
| 1777805261 | 18.89° C | 90% | 1004.1 hPa | 3.56 mm | - | - | - |
| 1777804661 | 18.89° C | 90% | 1004.2 hPa | 3.81 mm | - | - | - |
| 1777804061 | 18.89° C | 89% | 1004.2 hPa | 2.79 mm | - | - | - |
| 1777803463 | 18.89° C | 89% | 1004.1 hPa | 2.54 mm | - | - | - |
| 1777802863 | 18.89° C | 89% | 1004.2 hPa | 2.54 mm | - | - | - |
| 1777802263 | 18.89° C | 88% | 1003.8 hPa | 2.54 mm | - | - | - |
| 1777801662 | 18.89° C | 88% | 1004.1 hPa | 3.56 mm | - | - | - |
| 1777801061 | 18.89° C | 88% | 1004.1 hPa | 3.81 mm | - | - | - |
| 1777800461 | 18.89° C | 88% | 1004.2 hPa | 4.06 mm | - | - | - |
| 1777799862 | 18.89° C | 89% | 1004 hPa | 4.06 mm | - | - | - |
| 1777799263 | 18.89° C | 88% | 1004.1 hPa | 3.81 mm | - | - | - |
| 1777798663 | 18.89° C | 88% | 1004.1 hPa | 3.81 mm | - | - | - |
| 1777798063 | 18.89° C | 87% | 1004.3 hPa | 3.3 mm | - | - | - |
| 1777797462 | 18.89° C | 86% | 1004.5 hPa | 3.05 mm | - | - | - |
| 1777796862 | 19.44° C | 85% | 1004.5 hPa | 2.54 mm | - | - | - |
| 1777796262 | 19.44° C | 85% | 1004.6 hPa | 2.03 mm | - | - | - |
| 1777795662 | 19.44° C | 84% | 1004.7 hPa | 1.78 mm | - | - | - |
| 1777795062 | 20° C | 82% | 1005 hPa | 1.27 mm | - | - | - |
| 1777794461 | 20° C | 80% | 1005.2 hPa | 0.51 mm | - | - | - |
| 1777793861 | 20.56° C | 77% | 1005 hPa | 0 mm | - | - | - |
| 1777793261 | 20.56° C | 76% | 1005 hPa | 0 mm | - | - | - |
* Rain latest hour (hover to see other rain measurements)
** Current wind speed in m/s (hover to see current wind gust speed)